Okmulgee, OK

11:35 AM CDT on June 27, 2017 (GMT -0500)
Okmulgee Regional

Weather History for KOKM - December, 2012

Change the Weather History Date:

Monday, December 3, 2012

  Actual Average (KMKO) Record (KMKO)
Temperature  
Mean Temperature 71 °F -  
Max Temperature 78 °F 53 °F 77 °F (2012)
Min Temperature 64 °F 33 °F 17 °F (2006)
Cooling Degree Days 6    
Growing Degree Days 21 (Base 50)    
Moisture  
Dew Point 58 °F    
Average Humidity 64    
Maximum Humidity 83    
Minimum Humidity 42    
Precipitation  
Precipitation 0.00 in - - ()
Sea Level Pressure  
Sea Level Pressure 29.89 in    
Wind  
Wind Speed 16 mph (SSW)    
Max Wind Speed 30 mph    
Max Gust Speed 36 mph    
Visibility 10 miles    
Events Rain , Thunderstorm    
Averages and records for this station are not official NWS values.
T = Trace of Precipitation, MM = Missing Value Source: NWS Daily Summary

Daily Weather History Graph

Daily Weather History Graph

Search for Another Location

Airport or City:

Trip Planner

Search our weather history database for the weather conditions in past years. The results will help you decide how hot, cold, wet, or windy it might be!

Date:

Astronomy

Dec. 03, 2012 Rise Set
Actual Time 7:17 AM CST 5:10 PM CST
Civil Twilight 6:49 AM CST 5:38 PM CST
Nautical Twilight 6:17 AM CST 6:10 PM CST
Astronomical Twilight 5:46 AM CST 6:40 PM CST
Moon 9:52 PM CST (12/3) 10:45 AM CST (12/3)
Length of Visible Light 10h 49m
Length of Day
9h 52m
Waning Gibbous, 78% of the Moon is Illuminated
Dec 3
Waning Gibbous
Dec 6
Last Quarter
Dec 13
New
Dec 19
First Quarter
Dec 28
Full

Hourly Weather History & Observations

Time (CST) Temp. Dew Point Humidity Pressure Visibility Wind Dir Wind Speed Gust Speed Precip Events Conditions
12:15 AM 69.8 °F 59.0 °F 68% 29.93 in 10.0 mi South 13.8 mph 18.4 mph N/A   Clear
12:35 AM 69.8 °F 59.0 °F 68% 29.93 in 10.0 mi South 17.3 mph 25.3 mph N/A   Clear
12:55 AM 69.8 °F 59.0 °F 68% 29.92 in 10.0 mi South 19.6 mph 27.6 mph N/A   Clear
1:15 AM 69.8 °F 59.0 °F 68% 29.92 in 10.0 mi South 15.0 mph 25.3 mph N/A   Clear
1:35 AM 69.8 °F 59.0 °F 68% 29.92 in 10.0 mi SSW 16.1 mph 25.3 mph N/A   Clear
1:55 AM 69.8 °F 59.0 °F 68% 29.93 in 10.0 mi South 16.1 mph 23.0 mph N/A   Clear
2:15 AM 69.8 °F 59.0 °F 68% 29.93 in 10.0 mi South 17.3 mph 26.5 mph N/A   Scattered Clouds
2:35 AM 69.8 °F 59.0 °F 68% 29.92 in 10.0 mi South 21.9 mph 27.6 mph N/A   Mostly Cloudy
2:55 AM 69.8 °F 59.0 °F 68% 29.91 in 10.0 mi South 15.0 mph - N/A   Mostly Cloudy
3:15 AM 69.8 °F 59.0 °F 68% 29.91 in 10.0 mi South 16.1 mph 21.9 mph N/A   Scattered Clouds
3:35 AM 68.0 °F 59.0 °F 73% 29.91 in 10.0 mi South 17.3 mph 23.0 mph N/A   Clear
3:55 AM 68.0 °F 59.0 °F 73% 29.89 in 10.0 mi South 16.1 mph 23.0 mph N/A   Clear
4:15 AM 68.0 °F 59.0 °F 73% 29.89 in 10.0 mi South 17.3 mph 26.5 mph N/A   Clear
4:35 AM 68.0 °F 59.0 °F 73% 29.89 in 10.0 mi South 19.6 mph 24.2 mph N/A   Clear
4:55 AM 68.0 °F 59.0 °F 73% 29.88 in 10.0 mi South 16.1 mph 25.3 mph N/A   Clear
5:15 AM 68.0 °F 59.0 °F 73% 29.87 in 10.0 mi South 23.0 mph 29.9 mph N/A   Clear
5:35 AM 68.0 °F 59.0 °F 73% 29.87 in 10.0 mi South 18.4 mph 29.9 mph N/A   Clear
5:55 AM 68.0 °F 59.0 °F 73% 29.87 in 10.0 mi South 19.6 mph 27.6 mph N/A   Clear
6:15 AM 66.2 °F 59.0 °F 78% 29.86 in 10.0 mi South 20.7 mph 28.8 mph N/A   Clear
6:35 AM 66.2 °F 57.2 °F 73% 29.87 in 10.0 mi South 21.9 mph 27.6 mph N/A   Clear
7:15 AM 64.4 °F 57.2 °F 77% 29.89 in 10.0 mi South 17.3 mph 26.5 mph N/A   Clear
7:35 AM 64.4 °F 57.2 °F 77% 29.89 in 10.0 mi South 17.3 mph 25.3 mph N/A   Clear
7:55 AM 64.4 °F 59.0 °F 83% 29.89 in 10.0 mi South 18.4 mph 26.5 mph N/A   Scattered Clouds
8:15 AM 66.2 °F 59.0 °F 78% 29.89 in 10.0 mi South 21.9 mph 31.1 mph N/A   Scattered Clouds
8:35 AM 66.2 °F 59.0 °F 78% 29.90 in 10.0 mi South 21.9 mph 29.9 mph N/A   Mostly Cloudy
9:15 AM 68.0 °F 59.0 °F 73% 29.91 in 10.0 mi SSW 19.6 mph 33.4 mph N/A   Overcast
9:35 AM 68.0 °F 59.0 °F 73% 29.92 in 10.0 mi SSW 21.9 mph 26.5 mph N/A   Overcast
9:55 AM 68.0 °F 59.0 °F 73% 29.91 in 10.0 mi South 21.9 mph 27.6 mph N/A   Overcast
10:15 AM 68.0 °F 59.0 °F 73% 29.93 in 10.0 mi SSW 17.3 mph 26.5 mph N/A   Overcast
10:35 AM 68.0 °F 59.0 °F 73% 29.93 in 10.0 mi SSW 18.4 mph 31.1 mph N/A   Mostly Cloudy
10:55 AM 69.8 °F 59.0 °F 68% 29.93 in 10.0 mi SSW 19.6 mph 24.2 mph N/A   Mostly Cloudy
11:15 AM 69.8 °F 59.0 °F 68% 29.91 in 10.0 mi South 21.9 mph 29.9 mph N/A   Mostly Cloudy
11:35 AM 71.6 °F 59.0 °F 64% 29.89 in 10.0 mi South 20.7 mph 33.4 mph N/A   Mostly Cloudy
11:55 AM 71.6 °F 59.0 °F 64% 29.90 in 10.0 mi South 27.6 mph 35.7 mph N/A   Mostly Cloudy
12:15 PM 73.4 °F 59.0 °F 61% 29.88 in 10.0 mi South 21.9 mph 35.7 mph N/A   Mostly Cloudy
12:35 PM 73.4 °F 59.0 °F 61% 29.86 in 10.0 mi South 26.5 mph 34.5 mph N/A   Mostly Cloudy
1:15 PM 73.4 °F 57.2 °F 57% 29.84 in 10.0 mi SSW 29.9 mph 35.7 mph N/A   Scattered Clouds
1:35 PM 73.4 °F 57.2 °F 57% 29.83 in 10.0 mi South 21.9 mph 31.1 mph N/A   Scattered Clouds
1:55 PM 75.2 °F 57.2 °F 53% 29.82 in 10.0 mi SSW 21.9 mph 28.8 mph N/A   Scattered Clouds
2:15 PM 77.0 °F 57.2 °F 50% 29.82 in 10.0 mi SSW 20.7 mph 28.8 mph N/A   Clear
2:35 PM 77.0 °F 57.2 °F 50% 29.81 in 10.0 mi South 18.4 mph 29.9 mph N/A   Clear
2:55 PM 77.0 °F 55.4 °F 47% 29.81 in 10.0 mi South 16.1 mph 24.2 mph N/A   Clear
3:15 PM 78.8 °F 55.4 °F 44% 29.81 in 10.0 mi SSW 20.7 mph 28.8 mph N/A   Clear
3:35 PM 78.8 °F 55.4 °F 44% 29.81 in 10.0 mi SSW 21.9 mph 27.6 mph N/A   Clear
3:55 PM 78.8 °F 53.6 °F 42% 29.81 in 10.0 mi South 16.1 mph 28.8 mph N/A   Clear
4:15 PM 77.0 °F 53.6 °F 44% 29.81 in 10.0 mi South 15.0 mph 18.4 mph N/A   Clear
4:35 PM 77.0 °F 55.4 °F 47% 29.83 in 10.0 mi SSW 10.4 mph 16.1 mph N/A   Clear
4:55 PM 77.0 °F 55.4 °F 47% 29.83 in 10.0 mi SSW 9.2 mph - N/A   Clear
5:15 PM 75.2 °F 55.4 °F 50% 29.84 in 10.0 mi SSW 6.9 mph - N/A   Clear
5:35 PM 73.4 °F 55.4 °F 53% 29.86 in 10.0 mi South 8.1 mph - N/A   Clear
5:55 PM 71.6 °F 55.4 °F 57% 29.86 in 10.0 mi South 8.1 mph - N/A   Clear
6:15 PM 69.8 °F 55.4 °F 60% 29.87 in 10.0 mi South 8.1 mph - N/A   Clear
6:35 PM 69.8 °F 55.4 °F 60% 29.87 in 10.0 mi South 9.2 mph - N/A   Clear
6:55 PM 71.6 °F 55.4 °F 57% 29.88 in 10.0 mi South 9.2 mph - N/A   Clear
7:15 PM 71.6 °F 55.4 °F 57% 29.89 in 10.0 mi South 11.5 mph - N/A   Clear
7:35 PM 71.6 °F 55.4 °F 57% 29.88 in 10.0 mi South 11.5 mph - N/A   Scattered Clouds
7:55 PM 71.6 °F 55.4 °F 57% 29.89 in 10.0 mi South 11.5 mph - N/A   Clear
8:15 PM 71.6 °F 55.4 °F 57% 29.89 in 10.0 mi South 11.5 mph - N/A   Clear
8:35 PM 71.6 °F 57.2 °F 60% 29.89 in 10.0 mi South 11.5 mph - N/A   Clear
8:55 PM 69.8 °F 57.2 °F 64% 29.90 in 10.0 mi South 9.2 mph - N/A   Clear
9:15 PM 69.8 °F 57.2 °F 64% 29.90 in 10.0 mi South 8.1 mph - N/A Rain Light Rain
9:35 PM 68.0 °F 59.0 °F 73% 29.90 in 10.0 mi South 9.2 mph - N/A   Scattered Clouds
9:55 PM 69.8 °F 57.2 °F 64% 29.91 in 10.0 mi South 9.2 mph 16.1 mph N/A Thunderstorm Clear
10:15 PM 69.8 °F 57.2 °F 64% 29.94 in 10.0 mi West 9.2 mph - N/A   Scattered Clouds
10:35 PM 69.8 °F 57.2 °F 64% 29.94 in 10.0 mi West 5.8 mph - N/A   Overcast
10:55 PM 69.8 °F 57.2 °F 64% 29.95 in 10.0 mi WSW 9.2 mph - N/A   Overcast
11:15 PM 69.8 °F 57.2 °F 64% 29.95 in 10.0 mi West 3.5 mph - N/A   Overcast
11:35 PM 69.8 °F 57.2 °F 64% 29.95 in 10.0 mi WSW 3.5 mph - N/A   Overcast
11:55 PM 69.8 °F 57.2 °F 64% 29.96 in 10.0 mi West 3.5 mph - N/A   Overcast